Year,Month,Day,Hour,Minute,Value (Times are PST for temperature in C)
2008,09,16,00,00,14.10
2008,09,16,00,01,14.10
2008,09,16,00,02,14.00
2008,09,16,00,03,14.00
2008,09,16,00,04,14.00
2008,09,16,00,05,14.00
2008,09,16,00,06,14.00
2008,09,16,00,07,13.90
2008,09,16,00,08,13.90
2008,09,16,00,09,13.90
2008,09,16,00,10,13.90
2008,09,16,00,11,13.90
2008,09,16,00,12,13.90
2008,09,16,00,13,13.90
2008,09,16,00,14,13.80
2008,09,16,00,15,13.80
2008,09,16,00,16,13.80
2008,09,16,00,17,13.80
2008,09,16,00,18,13.70
2008,09,16,00,19,13.70
2008,09,16,00,20,13.70
2008,09,16,00,21,13.70
2008,09,16,00,22,13.70
2008,09,16,00,23,13.70
2008,09,16,00,24,13.70
2008,09,16,00,25,13.70
2008,09,16,00,26,13.60
2008,09,16,00,27,13.60
2008,09,16,00,28,13.60
2008,09,16,00,29,13.60
2008,09,16,00,30,13.50
2008,09,16,00,31,13.50
2008,09,16,00,32,13.50
2008,09,16,00,33,13.50
2008,09,16,00,34,13.50
2008,09,16,00,35,13.40
2008,09,16,00,36,13.40
2008,09,16,00,37,13.40
2008,09,16,00,38,13.40
2008,09,16,00,39,13.30
2008,09,16,00,40,13.30
2008,09,16,00,41,13.30
2008,09,16,00,42,13.30
2008,09,16,00,43,13.30
2008,09,16,00,44,13.30
2008,09,16,00,45,13.30
2008,09,16,00,46,13.30
2008,09,16,00,47,13.30
2008,09,16,00,48,13.20
2008,09,16,00,49,13.20
2008,09,16,00,50,13.20
2008,09,16,00,51,13.20
2008,09,16,00,52,13.10
2008,09,16,00,53,13.10
2008,09,16,00,54,13.10
2008,09,16,00,55,13.10
2008,09,16,00,56,13.10
2008,09,16,00,57,13.10
2008,09,16,00,58,13.10
2008,09,16,00,59,13.10
2008,09,16,01,00,13.10
2008,09,16,01,01,13.10
2008,09,16,01,02,13.10
2008,09,16,01,03,13.10
2008,09,16,01,04,13.10
2008,09,16,01,05,13.20
2008,09,16,01,06,13.20
2008,09,16,01,07,13.20
2008,09,16,01,08,13.20
2008,09,16,01,09,13.30
2008,09,16,01,10,13.20
2008,09,16,01,11,13.20
2008,09,16,01,12,13.20
2008,09,16,01,13,13.20
2008,09,16,01,14,13.20
2008,09,16,01,15,13.10
2008,09,16,01,16,13.10
2008,09,16,01,17,13.10
2008,09,16,01,18,13.10
2008,09,16,01,19,13.00
2008,09,16,01,20,13.00
2008,09,16,01,21,13.00
2008,09,16,01,22,12.90
2008,09,16,01,23,12.90
2008,09,16,01,24,12.90
2008,09,16,01,25,12.90
2008,09,16,01,26,12.90
2008,09,16,01,27,12.80
2008,09,16,01,28,12.80
2008,09,16,01,29,12.80
2008,09,16,01,30,12.80
2008,09,16,01,31,12.70
2008,09,16,01,32,12.70
2008,09,16,01,33,12.70
2008,09,16,01,34,12.70
2008,09,16,01,35,12.60
2008,09,16,01,36,12.60
2008,09,16,01,37,12.60
2008,09,16,01,38,12.60
2008,09,16,01,39,12.60
2008,09,16,01,40,12.60
2008,09,16,01,41,12.60
2008,09,16,01,42,12.50
2008,09,16,01,43,12.50
2008,09,16,01,44,12.40
2008,09,16,01,45,12.40
2008,09,16,01,46,12.40
2008,09,16,01,47,12.40
2008,09,16,01,48,12.40
2008,09,16,01,49,12.40
2008,09,16,01,50,12.40
2008,09,16,01,51,12.40
2008,09,16,01,52,12.40
2008,09,16,01,53,12.40
2008,09,16,01,54,12.40
2008,09,16,01,55,12.40
2008,09,16,01,56,12.40
2008,09,16,01,57,12.40
2008,09,16,01,58,12.40
2008,09,16,01,59,12.40
2008,09,16,02,00,12.30
2008,09,16,02,01,12.30
2008,09,16,02,02,12.30
2008,09,16,02,03,12.30
2008,09,16,02,04,12.20
2008,09,16,02,05,12.20
2008,09,16,02,06,12.20
2008,09,16,02,07,12.10
2008,09,16,02,08,12.10
2008,09,16,02,09,12.10
2008,09,16,02,10,12.10
2008,09,16,02,11,12.00
2008,09,16,02,12,12.00
2008,09,16,02,13,12.00
2008,09,16,02,14,11.90
2008,09,16,02,15,11.90
2008,09,16,02,16,11.90
2008,09,16,02,17,11.90
2008,09,16,02,18,11.90
2008,09,16,02,19,11.90
2008,09,16,02,20,11.90
2008,09,16,02,21,11.90
2008,09,16,02,22,11.90
2008,09,16,02,23,11.90
2008,09,16,02,24,11.90
2008,09,16,02,25,12.00
2008,09,16,02,26,12.00
2008,09,16,02,27,12.00
2008,09,16,02,28,12.00
2008,09,16,02,29,12.00
2008,09,16,02,30,12.00
2008,09,16,02,31,12.00
2008,09,16,02,32,12.00
2008,09,16,02,33,12.00
2008,09,16,02,34,12.00
2008,09,16,02,35,12.00
2008,09,16,02,36,12.00
2008,09,16,02,37,12.00
2008,09,16,02,38,12.00
2008,09,16,02,39,11.90
2008,09,16,02,40,11.90
2008,09,16,02,41,11.90
2008,09,16,02,42,11.90
2008,09,16,02,43,11.90
2008,09,16,02,44,11.90
2008,09,16,02,45,11.90
2008,09,16,02,46,11.90
2008,09,16,02,47,11.90
2008,09,16,02,48,11.90
2008,09,16,02,49,11.90
2008,09,16,02,50,11.90
2008,09,16,02,51,11.80
2008,09,16,02,52,11.80
2008,09,16,02,53,11.80
2008,09,16,02,54,11.80
2008,09,16,02,55,11.80
2008,09,16,02,56,11.70
2008,09,16,02,57,11.70
2008,09,16,02,58,11.70
2008,09,16,02,59,11.60
2008,09,16,03,00,11.60
2008,09,16,03,01,11.60
2008,09,16,03,02,11.60
2008,09,16,03,03,11.60
2008,09,16,03,04,11.60
2008,09,16,03,05,11.60
2008,09,16,03,06,11.60
2008,09,16,03,07,11.60
2008,09,16,03,08,11.50
2008,09,16,03,09,11.50
2008,09,16,03,10,11.50
2008,09,16,03,11,11.50
2008,09,16,03,12,11.40
2008,09,16,03,13,11.40
2008,09,16,03,14,11.40
2008,09,16,03,15,11.40
2008,09,16,03,16,11.40
2008,09,16,03,17,11.40
2008,09,16,03,18,11.40
2008,09,16,03,19,11.40
2008,09,16,03,20,11.30
2008,09,16,03,21,11.30
2008,09,16,03,22,11.30
2008,09,16,03,23,11.30
2008,09,16,03,24,11.30
2008,09,16,03,25,11.30
2008,09,16,03,26,11.30
2008,09,16,03,27,11.30
2008,09,16,03,28,11.30
2008,09,16,03,29,11.30
2008,09,16,03,30,11.30
2008,09,16,03,31,11.30
2008,09,16,03,32,11.30
2008,09,16,03,33,11.20
2008,09,16,03,34,11.20
2008,09,16,03,35,11.20
2008,09,16,03,36,11.20
2008,09,16,03,37,11.20
2008,09,16,03,38,11.10
2008,09,16,03,39,11.10
2008,09,16,03,40,11.10
2008,09,16,03,41,11.10
2008,09,16,03,42,11.00
2008,09,16,03,43,11.00
2008,09,16,03,44,11.00
2008,09,16,03,45,10.90
2008,09,16,03,46,10.90
2008,09,16,03,47,10.90
2008,09,16,03,48,10.90
2008,09,16,03,49,10.90
2008,09,16,03,50,10.90
2008,09,16,03,51,10.90
2008,09,16,03,52,10.90
2008,09,16,03,53,10.90
2008,09,16,03,54,10.80
2008,09,16,03,55,10.80
2008,09,16,03,56,10.80
2008,09,16,03,57,10.80
2008,09,16,03,58,10.80
2008,09,16,03,59,10.80
2008,09,16,04,00,10.80
2008,09,16,04,01,10.80
2008,09,16,04,02,10.80
2008,09,16,04,03,10.80
2008,09,16,04,04,10.80
2008,09,16,04,05,10.70
2008,09,16,04,06,10.70
2008,09,16,04,07,10.70
2008,09,16,04,08,10.70
2008,09,16,04,09,10.70
2008,09,16,04,10,10.70
2008,09,16,04,11,10.70
2008,09,16,04,12,10.70
2008,09,16,04,13,10.70
2008,09,16,04,14,10.70
2008,09,16,04,15,10.70
2008,09,16,04,16,10.70
2008,09,16,04,17,10.60
2008,09,16,04,18,10.60
2008,09,16,04,19,10.60
2008,09,16,04,20,10.60
2008,09,16,04,21,10.60
2008,09,16,04,22,10.60
2008,09,16,04,23,10.60
2008,09,16,04,24,10.70
2008,09,16,04,25,10.60
2008,09,16,04,26,10.60
2008,09,16,04,27,10.60
2008,09,16,04,28,10.60
2008,09,16,04,29,10.60
2008,09,16,04,30,10.60
2008,09,16,04,31,10.60
2008,09,16,04,32,10.60
2008,09,16,04,33,10.60
2008,09,16,04,34,10.60
2008,09,16,04,35,10.60
2008,09,16,04,36,10.60
2008,09,16,04,37,10.60
2008,09,16,04,38,10.60
2008,09,16,04,39,10.60
2008,09,16,04,40,10.60
2008,09,16,04,41,10.60
2008,09,16,04,42,10.60
2008,09,16,04,43,10.70
2008,09,16,04,44,10.70
2008,09,16,04,45,10.70
2008,09,16,04,46,10.70
2008,09,16,04,47,10.70
2008,09,16,04,48,10.70
2008,09,16,04,49,10.70
2008,09,16,04,50,10.70
2008,09,16,04,51,10.70
2008,09,16,04,52,10.70
2008,09,16,04,53,10.70
2008,09,16,04,54,10.70
2008,09,16,04,55,10.80
2008,09,16,04,56,10.80
2008,09,16,04,57,10.80
2008,09,16,04,58,10.80
2008,09,16,04,59,10.70
2008,09,16,05,00,10.70
2008,09,16,05,01,10.70
2008,09,16,05,02,10.70
2008,09,16,05,03,10.60
2008,09,16,05,04,10.60
2008,09,16,05,05,10.60
2008,09,16,05,06,10.60
2008,09,16,05,07,10.50
2008,09,16,05,08,10.50
2008,09,16,05,09,10.50
2008,09,16,05,10,10.40
2008,09,16,05,11,10.40
2008,09,16,05,12,10.40
2008,09,16,05,13,10.40
2008,09,16,05,14,10.40
2008,09,16,05,15,10.30
2008,09,16,05,16,10.30
2008,09,16,05,17,10.30
2008,09,16,05,18,10.30
2008,09,16,05,19,10.30
2008,09,16,05,20,10.30
2008,09,16,05,21,10.30
2008,09,16,05,22,10.30
2008,09,16,05,23,10.30
2008,09,16,05,24,10.30
2008,09,16,05,25,10.30
2008,09,16,05,26,10.30
2008,09,16,05,27,10.30
2008,09,16,05,28,10.30
2008,09,16,05,29,10.30
2008,09,16,05,30,10.30
2008,09,16,05,31,10.30
2008,09,16,05,32,10.30
2008,09,16,05,33,10.30
2008,09,16,05,34,10.30
2008,09,16,05,35,10.30
2008,09,16,05,36,10.30
2008,09,16,05,37,10.30
2008,09,16,05,38,10.30
2008,09,16,05,39,10.30
2008,09,16,05,40,10.30
2008,09,16,05,41,10.40
2008,09,16,05,42,10.40
2008,09,16,05,43,10.40
2008,09,16,05,44,10.40
2008,09,16,05,45,10.40
2008,09,16,05,46,10.30
2008,09,16,05,47,10.30
2008,09,16,05,48,10.30
2008,09,16,05,49,10.30
2008,09,16,05,50,10.30
2008,09,16,05,51,10.30
2008,09,16,05,52,10.30
2008,09,16,05,53,10.30
2008,09,16,05,54,10.30
2008,09,16,05,55,10.30
2008,09,16,05,56,10.30
2008,09,16,05,57,10.30
2008,09,16,05,58,10.30
2008,09,16,05,59,10.30
2008,09,16,06,00,10.30
2008,09,16,06,01,10.30
2008,09,16,06,02,10.30
2008,09,16,06,03,10.30
2008,09,16,06,04,10.30
2008,09,16,06,05,10.30
2008,09,16,06,06,10.20
2008,09,16,06,07,10.20
2008,09,16,06,08,10.20
2008,09,16,06,09,10.20
2008,09,16,06,10,10.20
2008,09,16,06,11,10.20
2008,09,16,06,12,10.20
2008,09,16,06,13,10.20
2008,09,16,06,14,10.20
2008,09,16,06,15,10.10
2008,09,16,06,16,10.10
2008,09,16,06,17,10.10
2008,09,16,06,18,10.10
2008,09,16,06,19,10.10
2008,09,16,06,20,10.10
2008,09,16,06,21,10.20
2008,09,16,06,22,10.20
2008,09,16,06,23,10.20
2008,09,16,06,24,10.20
2008,09,16,06,25,10.20
2008,09,16,06,26,10.20
2008,09,16,06,27,10.20
2008,09,16,06,28,10.20
2008,09,16,06,29,10.20
2008,09,16,06,30,10.20
2008,09,16,06,31,10.20
2008,09,16,06,32,10.20
2008,09,16,06,33,10.20
2008,09,16,06,34,10.20
2008,09,16,06,35,10.20
2008,09,16,06,36,10.20
2008,09,16,06,37,10.20
2008,09,16,06,38,10.20
2008,09,16,06,39,10.20
2008,09,16,06,40,10.20
2008,09,16,06,41,10.20
2008,09,16,06,42,10.10
2008,09,16,06,43,10.10
2008,09,16,06,44,10.10
2008,09,16,06,45,10.10
2008,09,16,06,46,10.10
2008,09,16,06,47,10.10
2008,09,16,06,48,10.10
2008,09,16,06,49,10.10
2008,09,16,06,50,10.10
2008,09,16,06,51,10.10
2008,09,16,06,52,10.10
2008,09,16,06,53,10.10
2008,09,16,06,54,10.10
2008,09,16,06,55,10.10
2008,09,16,06,56,10.10
2008,09,16,06,57,10.00
2008,09,16,06,58,10.00
2008,09,16,06,59,10.00
2008,09,16,07,00,10.00
2008,09,16,07,01,9.90
2008,09,16,07,02,9.90
2008,09,16,07,03,9.90
2008,09,16,07,04,9.90
2008,09,16,07,05,9.90
2008,09,16,07,06,9.90
2008,09,16,07,07,9.90
2008,09,16,07,08,9.90
2008,09,16,07,09,9.90
2008,09,16,07,10,9.90
2008,09,16,07,11,9.90
2008,09,16,07,12,9.90
2008,09,16,07,13,9.90
2008,09,16,07,14,9.90
2008,09,16,07,15,9.90
2008,09,16,07,16,9.90
2008,09,16,07,17,9.90
2008,09,16,07,18,9.90
2008,09,16,07,19,9.90
2008,09,16,07,20,10.00
2008,09,16,07,21,10.00
2008,09,16,07,22,10.00
2008,09,16,07,23,10.00
2008,09,16,07,24,10.00
2008,09,16,07,25,10.00
2008,09,16,07,26,10.00
2008,09,16,07,27,10.10
2008,09,16,07,28,10.10
2008,09,16,07,29,10.10
2008,09,16,07,30,10.10
2008,09,16,07,31,10.10
2008,09,16,07,32,10.10
2008,09,16,07,33,10.20
2008,09,16,07,34,10.20
2008,09,16,07,35,10.20
2008,09,16,07,36,10.20
2008,09,16,07,37,10.20
2008,09,16,07,38,10.20
2008,09,16,07,39,10.20
2008,09,16,07,40,10.20
2008,09,16,07,41,10.20
2008,09,16,07,42,10.20
2008,09,16,07,43,10.20
2008,09,16,07,44,10.20
2008,09,16,07,45,10.20
2008,09,16,07,46,10.20
2008,09,16,07,47,10.30
2008,09,16,07,48,10.30
2008,09,16,07,49,10.30
2008,09,16,07,50,10.30
2008,09,16,07,51,10.30
2008,09,16,07,52,10.30
2008,09,16,07,53,10.30
2008,09,16,07,54,10.30
2008,09,16,07,55,10.30
2008,09,16,07,56,10.30
2008,09,16,07,57,10.30
2008,09,16,07,58,10.30
2008,09,16,07,59,10.30
2008,09,16,08,00,10.40
2008,09,16,08,01,10.40
2008,09,16,08,02,10.40
2008,09,16,08,03,10.40
2008,09,16,08,04,10.40
2008,09,16,08,05,10.40
2008,09,16,08,06,10.40
2008,09,16,08,07,10.40
2008,09,16,08,08,10.40
2008,09,16,08,09,10.50
2008,09,16,08,10,10.50
2008,09,16,08,11,10.60
2008,09,16,08,12,10.70
2008,09,16,08,13,10.80
2008,09,16,08,14,11.00
2008,09,16,08,15,11.10
2008,09,16,08,16,11.10
2008,09,16,08,17,11.10
2008,09,16,08,18,11.20
2008,09,16,08,19,11.40
2008,09,16,08,20,11.40
2008,09,16,08,21,11.50
2008,09,16,08,22,11.60
2008,09,16,08,23,11.70
2008,09,16,08,24,11.70
2008,09,16,08,25,11.80
2008,09,16,08,26,11.90
2008,09,16,08,27,11.90
2008,09,16,08,28,12.00
2008,09,16,08,29,12.10
2008,09,16,08,30,12.20
2008,09,16,08,31,12.20
2008,09,16,08,32,12.20
2008,09,16,08,33,12.30
2008,09,16,08,34,12.30
2008,09,16,08,35,12.30
2008,09,16,08,36,12.40
2008,09,16,08,37,12.40
2008,09,16,08,38,12.40
2008,09,16,08,39,12.50
2008,09,16,08,40,12.50
2008,09,16,08,41,12.60
2008,09,16,08,42,12.60
2008,09,16,08,43,12.70
2008,09,16,08,44,12.70
2008,09,16,08,45,12.70
2008,09,16,08,46,12.80
2008,09,16,08,47,12.80
2008,09,16,08,48,12.90
2008,09,16,08,49,13.00
2008,09,16,08,50,13.10
2008,09,16,08,51,13.20
2008,09,16,08,52,13.20
2008,09,16,08,53,13.30
2008,09,16,08,54,13.40
2008,09,16,08,55,13.50
2008,09,16,08,56,13.60
2008,09,16,08,57,13.70
2008,09,16,08,58,13.80
2008,09,16,08,59,14.00
2008,09,16,09,00,14.10
2008,09,16,09,01,14.20
2008,09,16,09,02,14.30
2008,09,16,09,03,14.40
2008,09,16,09,04,14.50
2008,09,16,09,05,14.60
2008,09,16,09,06,14.60
2008,09,16,09,07,14.70
2008,09,16,09,08,14.80
2008,09,16,09,09,14.90
2008,09,16,09,10,15.00
2008,09,16,09,11,15.00
2008,09,16,09,12,15.00
2008,09,16,09,13,15.10
2008,09,16,09,14,15.30
2008,09,16,09,15,15.30
2008,09,16,09,16,15.50
2008,09,16,09,17,15.70
2008,09,16,09,18,15.80
2008,09,16,09,19,15.90
2008,09,16,09,20,16.10
2008,09,16,09,21,16.20
2008,09,16,09,22,16.40
2008,09,16,09,23,16.50
2008,09,16,09,24,16.60
2008,09,16,09,25,16.70
2008,09,16,09,26,16.90
2008,09,16,09,27,17.10
2008,09,16,09,28,17.30
2008,09,16,09,29,17.50
2008,09,16,09,30,17.60
2008,09,16,09,31,17.70
2008,09,16,09,32,17.80
2008,09,16,09,33,18.00
2008,09,16,09,34,18.10
2008,09,16,09,35,18.20
2008,09,16,09,36,18.30
2008,09,16,09,37,18.50
2008,09,16,09,38,18.60
2008,09,16,09,39,18.70
2008,09,16,09,40,18.70
2008,09,16,09,41,18.80
2008,09,16,09,42,18.90
2008,09,16,09,43,19.00
2008,09,16,09,44,19.10
2008,09,16,09,45,19.20
2008,09,16,09,46,19.30
2008,09,16,09,47,19.40
2008,09,16,09,48,19.50
2008,09,16,09,49,19.60
2008,09,16,09,50,19.60
2008,09,16,09,51,19.70
2008,09,16,09,52,19.70
2008,09,16,09,53,19.70
2008,09,16,09,54,19.80
2008,09,16,09,55,19.80
2008,09,16,09,56,19.80
2008,09,16,09,57,19.80
2008,09,16,09,58,19.90
2008,09,16,09,59,19.90
2008,09,16,10,00,19.90
2008,09,16,10,01,19.90
2008,09,16,10,02,19.90
2008,09,16,10,03,20.00
2008,09,16,10,04,20.00
2008,09,16,10,05,20.00
2008,09,16,10,06,20.10
2008,09,16,10,07,20.10
2008,09,16,10,08,20.10
2008,09,16,10,09,20.20
2008,09,16,10,10,20.20
2008,09,16,10,11,20.20
2008,09,16,10,12,20.30
2008,09,16,10,13,20.30
2008,09,16,10,14,20.30
2008,09,16,10,15,20.40
2008,09,16,10,16,20.50
2008,09,16,10,17,20.50
2008,09,16,10,18,20.60
2008,09,16,10,19,20.70
2008,09,16,10,20,20.80
2008,09,16,10,21,20.80
2008,09,16,10,22,20.90
2008,09,16,10,23,21.00
2008,09,16,10,24,21.00
2008,09,16,10,25,21.10
2008,09,16,10,26,21.20
2008,09,16,10,27,21.20
2008,09,16,10,28,21.20
2008,09,16,10,29,21.20
2008,09,16,10,30,21.30
2008,09,16,10,31,21.30
2008,09,16,10,32,21.40
2008,09,16,10,33,21.40
2008,09,16,10,34,21.50
2008,09,16,10,35,21.60
2008,09,16,10,36,21.70
2008,09,16,10,37,21.80
2008,09,16,10,38,21.80
2008,09,16,10,39,21.80
2008,09,16,10,40,21.90
2008,09,16,10,41,22.00
2008,09,16,10,42,22.00
2008,09,16,10,43,22.00
2008,09,16,10,44,22.00
2008,09,16,10,45,22.00
2008,09,16,10,46,22.10
2008,09,16,10,47,22.10
2008,09,16,10,48,22.10
2008,09,16,10,49,22.10
2008,09,16,10,50,22.10
2008,09,16,10,51,22.20
2008,09,16,10,52,22.20
2008,09,16,10,53,22.20
2008,09,16,10,54,22.30
2008,09,16,10,55,22.40
2008,09,16,10,56,22.50
2008,09,16,10,57,22.60
2008,09,16,10,58,22.60
2008,09,16,10,59,22.60
2008,09,16,11,00,22.60
2008,09,16,11,01,22.60
2008,09,16,11,02,22.60
2008,09,16,11,03,22.60
2008,09,16,11,04,22.60
2008,09,16,11,05,22.70
2008,09,16,11,06,22.70
2008,09,16,11,07,22.70
2008,09,16,11,08,22.70
2008,09,16,11,09,22.70
2008,09,16,11,10,22.60
2008,09,16,11,11,22.60
2008,09,16,11,12,22.60
2008,09,16,11,13,22.60
2008,09,16,11,14,22.60
2008,09,16,11,15,22.60
2008,09,16,11,16,22.70
2008,09,16,11,17,22.80
2008,09,16,11,18,22.80
2008,09,16,11,19,22.80
2008,09,16,11,20,22.80
2008,09,16,11,21,22.80
2008,09,16,11,22,22.80
2008,09,16,11,23,22.80
2008,09,16,11,24,22.80
2008,09,16,11,25,22.80
2008,09,16,11,26,22.80
2008,09,16,11,27,22.80
2008,09,16,11,28,22.80
2008,09,16,11,29,22.90
2008,09,16,11,30,22.90
2008,09,16,11,31,23.00
2008,09,16,11,32,23.00
2008,09,16,11,33,23.00
2008,09,16,11,34,23.00
2008,09,16,11,35,23.10
2008,09,16,11,36,23.20
2008,09,16,11,37,23.30
2008,09,16,11,38,23.30
2008,09,16,11,39,23.30
2008,09,16,11,40,23.30
2008,09,16,11,41,23.30
2008,09,16,11,42,23.30
2008,09,16,11,43,23.40
2008,09,16,11,44,23.40
2008,09,16,11,45,23.40
2008,09,16,11,46,23.50
2008,09,16,11,47,23.50
2008,09,16,11,48,23.60
2008,09,16,11,49,23.70
2008,09,16,11,50,23.80
2008,09,16,11,51,23.90
2008,09,16,11,52,24.10
2008,09,16,11,53,24.30
2008,09,16,11,54,24.40
2008,09,16,11,55,24.50
2008,09,16,11,56,24.70
2008,09,16,11,57,24.70
2008,09,16,11,58,24.80
2008,09,16,11,59,24.80
2008,09,16,12,00,24.80
2008,09,16,12,01,24.80
2008,09,16,12,02,24.80
2008,09,16,12,03,24.80
2008,09,16,12,04,24.90
2008,09,16,12,05,24.90
2008,09,16,12,06,24.90
2008,09,16,12,07,24.90
2008,09,16,12,08,24.90
2008,09,16,12,09,24.90
2008,09,16,12,10,24.90
2008,09,16,12,11,24.90
2008,09,16,12,12,24.90
2008,09,16,12,13,25.00
2008,09,16,12,14,25.00
2008,09,16,12,15,25.00
2008,09,16,12,16,24.90
2008,09,16,12,17,24.90
2008,09,16,12,18,24.90
2008,09,16,12,19,24.90
2008,09,16,12,20,25.00
2008,09,16,12,21,25.10
2008,09,16,12,22,25.20
2008,09,16,12,23,25.20
2008,09,16,12,24,25.20
2008,09,16,12,25,25.20
2008,09,16,12,26,25.20
2008,09,16,12,27,25.20
2008,09,16,12,28,25.20
2008,09,16,12,29,25.10
2008,09,16,12,30,25.10
2008,09,16,12,31,25.10
2008,09,16,12,32,25.10
2008,09,16,12,33,25.10
2008,09,16,12,34,25.10
2008,09,16,12,35,25.00
2008,09,16,12,36,24.90
2008,09,16,12,37,25.00
2008,09,16,12,38,25.00
2008,09,16,12,39,25.00
2008,09,16,12,40,25.00
2008,09,16,12,41,25.00
2008,09,16,12,42,25.10
2008,09,16,12,43,25.10
2008,09,16,12,44,25.10
2008,09,16,12,45,25.10
2008,09,16,12,46,25.20
2008,09,16,12,47,25.30
2008,09,16,12,48,25.30
2008,09,16,12,49,25.30
2008,09,16,12,50,25.30
2008,09,16,12,51,25.30
2008,09,16,12,52,25.40
2008,09,16,12,53,25.40
2008,09,16,12,54,25.40
2008,09,16,12,55,25.40
2008,09,16,12,56,25.40
2008,09,16,12,57,25.40
2008,09,16,12,58,25.40
2008,09,16,12,59,25.40
2008,09,16,13,00,25.40
2008,09,16,13,01,25.40
2008,09,16,13,02,25.40
2008,09,16,13,03,25.50
2008,09,16,13,04,25.50
2008,09,16,13,05,25.50
2008,09,16,13,06,25.50
2008,09,16,13,07,25.40
2008,09,16,13,08,25.40
2008,09,16,13,09,25.40
2008,09,16,13,10,25.40
2008,09,16,13,11,25.40
2008,09,16,13,12,25.30
2008,09,16,13,13,25.30
2008,09,16,13,14,25.30
2008,09,16,13,15,25.30
2008,09,16,13,16,25.30
2008,09,16,13,17,25.30
2008,09,16,13,18,25.30
2008,09,16,13,19,25.30
2008,09,16,13,20,25.40
2008,09,16,13,21,25.40
2008,09,16,13,22,25.50
2008,09,16,13,23,25.50
2008,09,16,13,24,25.60
2008,09,16,13,25,25.60
2008,09,16,13,26,25.60
2008,09,16,13,27,25.60
2008,09,16,13,28,25.60
2008,09,16,13,29,25.60
2008,09,16,13,30,25.60
2008,09,16,13,31,25.60
2008,09,16,13,32,25.60
2008,09,16,13,33,25.60
2008,09,16,13,34,25.60
2008,09,16,13,35,25.60
2008,09,16,13,36,25.50
2008,09,16,13,37,25.50
2008,09,16,13,38,25.60
2008,09,16,13,39,25.50
2008,09,16,13,40,25.50
2008,09,16,13,41,25.60
2008,09,16,13,42,25.60
2008,09,16,13,43,25.60
2008,09,16,13,44,25.60
2008,09,16,13,45,25.60
2008,09,16,13,46,25.60
2008,09,16,13,47,25.60
2008,09,16,13,48,25.60
2008,09,16,13,49,25.60
2008,09,16,13,50,25.60
2008,09,16,13,51,25.60
2008,09,16,13,52,25.60
2008,09,16,13,53,25.60
2008,09,16,13,54,25.50
2008,09,16,13,55,25.50
2008,09,16,13,56,25.50
2008,09,16,13,57,25.60
2008,09,16,13,58,25.60
2008,09,16,13,59,25.60
2008,09,16,14,00,25.70
2008,09,16,14,01,25.70
2008,09,16,14,02,25.80
2008,09,16,14,03,25.90
2008,09,16,14,04,25.90
2008,09,16,14,05,25.90
2008,09,16,14,06,26.00
2008,09,16,14,07,26.00
2008,09,16,14,08,26.10
2008,09,16,14,09,26.10
2008,09,16,14,10,26.10
2008,09,16,14,11,26.10
2008,09,16,14,12,26.20
2008,09,16,14,13,26.20
2008,09,16,14,14,26.20
2008,09,16,14,15,26.20
2008,09,16,14,16,26.20
2008,09,16,14,17,26.20
2008,09,16,14,18,26.20
2008,09,16,14,19,26.20
2008,09,16,14,20,26.20
2008,09,16,14,21,26.30
2008,09,16,14,22,26.30
2008,09,16,14,23,26.30
2008,09,16,14,24,26.30
2008,09,16,14,25,26.30
2008,09,16,14,26,26.30
2008,09,16,14,27,26.30
2008,09,16,14,28,26.30
2008,09,16,14,29,26.40
2008,09,16,14,30,26.40
2008,09,16,14,31,26.50
2008,09,16,14,32,26.50
2008,09,16,14,33,26.50
2008,09,16,14,34,26.50
2008,09,16,14,35,26.50
2008,09,16,14,36,26.50
2008,09,16,14,37,26.50
2008,09,16,14,38,26.50
2008,09,16,14,39,26.60
2008,09,16,14,40,26.60
2008,09,16,14,41,26.60
2008,09,16,14,42,26.70
2008,09,16,14,43,26.70
2008,09,16,14,44,26.70
2008,09,16,14,45,26.80
2008,09,16,14,46,26.80
2008,09,16,14,47,26.80
2008,09,16,14,48,26.80
2008,09,16,14,49,26.80
2008,09,16,14,50,26.90
2008,09,16,14,51,26.80
2008,09,16,14,52,26.80
2008,09,16,14,53,26.80
2008,09,16,14,54,26.80
2008,09,16,14,55,26.80
2008,09,16,14,56,26.80
2008,09,16,14,57,26.80
2008,09,16,14,58,26.80
2008,09,16,14,59,26.80
2008,09,16,15,00,26.80
2008,09,16,15,01,26.80
2008,09,16,15,02,26.90
2008,09,16,15,03,26.90
2008,09,16,15,04,26.90
2008,09,16,15,05,26.90
2008,09,16,15,06,26.80
2008,09,16,15,07,26.80
2008,09,16,15,08,26.70
2008,09,16,15,09,26.50
2008,09,16,15,10,26.50
2008,09,16,15,11,26.40
2008,09,16,15,12,26.40
2008,09,16,15,13,26.30
2008,09,16,15,14,26.10
2008,09,16,15,15,26.00
2008,09,16,15,16,25.80
2008,09,16,15,17,25.70
2008,09,16,15,18,25.40
2008,09,16,15,19,25.20
2008,09,16,15,20,25.10
2008,09,16,15,21,25.10
2008,09,16,15,22,25.00
2008,09,16,15,23,24.90
2008,09,16,15,24,24.80
2008,09,16,15,25,24.80
2008,09,16,15,26,24.80
2008,09,16,15,27,24.80
2008,09,16,15,28,24.80
2008,09,16,15,29,24.80
2008,09,16,15,30,24.70
2008,09,16,15,31,24.60
2008,09,16,15,32,24.50
2008,09,16,15,33,24.40
2008,09,16,15,34,24.30
2008,09,16,15,35,24.30
2008,09,16,15,36,24.30
2008,09,16,15,37,24.30
2008,09,16,15,38,24.30
2008,09,16,15,39,24.30
2008,09,16,15,40,24.30
2008,09,16,15,41,24.40
2008,09,16,15,42,24.50
2008,09,16,15,43,24.60
2008,09,16,15,44,24.60
2008,09,16,15,45,24.60
2008,09,16,15,46,24.60
2008,09,16,15,47,24.60
2008,09,16,15,48,24.70
2008,09,16,15,49,24.70
2008,09,16,15,50,24.70
2008,09,16,15,51,24.70
2008,09,16,15,52,24.70
2008,09,16,15,53,24.70
2008,09,16,15,54,24.60
2008,09,16,15,55,24.60
2008,09,16,15,56,24.70
2008,09,16,15,57,24.70
2008,09,16,15,58,24.80
2008,09,16,15,59,24.80
2008,09,16,16,00,24.80
2008,09,16,16,01,24.90
2008,09,16,16,02,24.90
2008,09,16,16,03,24.90
2008,09,16,16,04,25.00
2008,09,16,16,05,25.00
2008,09,16,16,06,25.10
2008,09,16,16,07,25.20
2008,09,16,16,08,25.40
2008,09,16,16,09,25.50
2008,09,16,16,10,25.60
2008,09,16,16,11,25.70
2008,09,16,16,12,25.70
2008,09,16,16,13,25.80
2008,09,16,16,14,25.80
2008,09,16,16,15,25.90
2008,09,16,16,16,26.00
2008,09,16,16,17,26.10
2008,09,16,16,18,26.10
2008,09,16,16,19,26.20
2008,09,16,16,20,26.30
2008,09,16,16,21,26.20
2008,09,16,16,22,26.20
2008,09,16,16,23,26.20
2008,09,16,16,24,26.20
2008,09,16,16,25,26.20
2008,09,16,16,26,26.30
2008,09,16,16,27,26.30
2008,09,16,16,28,26.40
2008,09,16,16,29,26.50
2008,09,16,16,30,26.60
2008,09,16,16,31,26.50
2008,09,16,16,32,26.50
2008,09,16,16,33,26.50
2008,09,16,16,34,26.50
2008,09,16,16,35,26.50
2008,09,16,16,36,26.50
2008,09,16,16,37,26.50
2008,09,16,16,38,26.40
2008,09,16,16,39,26.40
2008,09,16,16,40,26.40
2008,09,16,16,41,26.30
2008,09,16,16,42,26.30
2008,09,16,16,43,26.30
2008,09,16,16,44,26.30
2008,09,16,16,45,26.30
2008,09,16,16,46,26.30
2008,09,16,16,47,26.30
2008,09,16,16,48,26.20
2008,09,16,16,49,26.30
2008,09,16,16,50,26.20
2008,09,16,16,51,26.20
2008,09,16,16,52,26.30
2008,09,16,16,53,26.40
2008,09,16,16,54,26.40
2008,09,16,16,55,26.40
2008,09,16,16,56,26.50
2008,09,16,16,57,26.50
2008,09,16,16,58,26.50
2008,09,16,16,59,26.40
2008,09,16,17,00,26.40
2008,09,16,17,01,26.40
2008,09,16,17,02,26.40
2008,09,16,17,03,26.30
2008,09,16,17,04,26.30
2008,09,16,17,05,26.30
2008,09,16,17,06,26.30
2008,09,16,17,07,26.30
2008,09,16,17,08,26.30
2008,09,16,17,09,26.40
2008,09,16,17,10,26.40
2008,09,16,17,11,26.40
2008,09,16,17,12,26.40
2008,09,16,17,13,26.50
2008,09,16,17,14,26.50
2008,09,16,17,15,26.60
2008,09,16,17,16,26.70
2008,09,16,17,17,26.70
2008,09,16,17,18,26.80
2008,09,16,17,19,26.80
2008,09,16,17,20,26.80